(110206) = 2004 DQ24 = 2001 SN207

Discovered at Socorro on 2001-09-19 by LINEAR.

Orbit

Orbit type: Main Belt

Note: WebGL enabled browser required.

epoch2023-09-13.0
epoch JD2460200.5
perihelion date2023-06-18.91135
perihelion JD2460114.41135
argument of perihelion (°)37.37173
ascending node (°)181.23710
inclination (°)6.85674
eccentricity0.1440149
perihelion distance (AU)2.3998273
Tisserand w.r.t. Jupiter3.3
ΔV w.r.t. Earth (km/sec)10.0
semimajor axis (AU)2.8035853
mean anomaly (°)18.07503
mean daily motion (°/day)0.20995840
aphelion distance (AU)3.207
period (years)4.69
P-vector [x]-0.78151799
P-vector [y]-0.59735214
P-vector [z]-0.18000016
Q-vector [x]0.62387738
Q-vector [y]-0.74946959
Q-vector [z]-0.22152277
absolute magnitude15.48
phase slope0.15
uncertainty0
referenceMPEC 2024-A34
observations used903
oppositions18
arc length (days)8420
first opposition used2000
last opposition used2023
residual rms (arc-secs)0.67
perturbers coarse indicatorM-v
perturbers precise indicator003Ek
first observation date used2000-06-05.0
last observation date used2023-06-25.0
computer nameMPCLINUX
JD of orbit computation2456909.330898
perihelion JD uncertainty (days)5.4391E-05
argument of perihelion uncertainty (°)2.9552E-05
ascending node uncertainty (°)2.6281E-05
inclination uncertainty (°)3.6648E-06
eccentricity uncertainty 3.3297E-08
perihelion distance uncertainty (AU)9.1259E-08
Minimum Orbit Intersection Distances (in AU)
for orbit epoch: 2460200.5, reference: E2024-A34
Mercury1.9525
Venus1.67746
Earth1.39617
Mars0.79529
Jupiter1.76387
Saturn5.94788
Uranus15.844
Neptune26.636

Observations

929 total observations over interval: 2000 06 05.33035 – 2023 06 25.177410
These data are available for download (format description).

Date (UT) J2000 RA J2000 Dec Magn Location Ref
2000 06 05.33035 17 59 58.76 -12 11 54.5 18.5   704 – Lincoln Laboratory ETS, New Mexico MPS 106178
2000 06 05.34442 17 59 58.17 -12 11 51.9 18.9   704 – Lincoln Laboratory ETS, New Mexico MPS 106178
2000 06 05.35766 17 59 57.44 -12 11 51.0 18.9   704 – Lincoln Laboratory ETS, New Mexico MPS 106178
2000 06 05.37090 17 59 56.75 -12 11 47.7 18.8   704 – Lincoln Laboratory ETS, New Mexico MPS 106178
2001 09 19.25907 00 17 29.55 +01 48 11.5 20.0   704 – Lincoln Laboratory ETS, New Mexico MPS 36752
2001 09 19.27320 00 17 28.88 +01 48 07.0 19.4   704 – Lincoln Laboratory ETS, New Mexico MPS 36752
2001 09 19.28748 00 17 28.22 +01 48 01.8 19.6   704 – Lincoln Laboratory ETS, New Mexico MPS 36752
2001 09 19.30161 00 17 27.61 +01 47 55.1 19.7   704 – Lincoln Laboratory ETS, New Mexico MPS 36752
2001 09 19.31574 00 17 26.94 +01 47 49.1 19.2   704 – Lincoln Laboratory ETS, New Mexico MPS 36752
2001 09 21.24553 00 16 00.42 +01 34 43.0 19.2   704 – Lincoln Laboratory ETS, New Mexico MPS 36752
2001 09 21.25953 00 15 59.77 +01 34 36.9 18.8   704 – Lincoln Laboratory ETS, New Mexico MPS 36752
2001 09 21.26055 00 15 59.74 +01 34 37.3 19.2   704 – Lincoln Laboratory ETS, New Mexico MPS 36752
2001 09 21.27368 00 15 59.15 +01 34 31.2 18.7   704 – Lincoln Laboratory ETS, New Mexico MPS 36752
2001 09 21.27501 00 15 59.09 +01 34 30.9 19.5   704 – Lincoln Laboratory ETS, New Mexico MPS 36752
2001 09 21.28783 00 15 58.48 +01 34 25.2 19.5   704 – Lincoln Laboratory ETS, New Mexico MPS 36752
2001 09 21.30197 00 15 57.81 +01 34 19.6 19.5   704 – Lincoln Laboratory ETS, New Mexico MPS 36752
2001 09 21.31612 00 15 57.18 +01 34 14.2 19.7   704 – Lincoln Laboratory ETS, New Mexico MPS 36752
2001 09 26.32889 00 12 09.88 +00 59 56.7 19.3   704 – Lincoln Laboratory ETS, New Mexico MPS 54621
2001 09 26.34392 00 12 09.05 +00 59 50.4 20.5   704 – Lincoln Laboratory ETS, New Mexico MPS 54621
2001 09 26.35850 00 12 08.49 +00 59 45.0 20.0   704 – Lincoln Laboratory ETS, New Mexico MPS 54621
2001 09 26.37309 00 12 07.82 +00 59 37.1 19.9   704 – Lincoln Laboratory ETS, New Mexico MPS 54621
2001 09 26.38768 00 12 07.11 +00 59 32.2 19.7   704 – Lincoln Laboratory ETS, New Mexico MPS 54621
2001 10 14.297910 23 59 26.630 -00 55 54.83 20.10 V 645 – Apache Point-Sloan Digital Sky Survey MPS 103828
2001 10 14.301382 23 59 26.494 -00 55 56.05 20.92   645 – Apache Point-Sloan Digital Sky Survey MPS 103828
2001 10 15.310580 23 58 49.252 -01 01 42.05 20.88 V 645 – Apache Point-Sloan Digital Sky Survey MPS 103828
2001 10 15.314052 23 58 49.116 -01 01 43.29 21.51   645 – Apache Point-Sloan Digital Sky Survey MPS 103828
2002 12 05.57617 04 55 36.17 +12 59 20.3 20.3   608 – Haleakala-AMOS MPS 103828
2002 12 05.58691 04 55 35.57 +12 59 18.9 20.1   608 – Haleakala-AMOS MPS 103828
2002 12 05.59764 04 55 34.98 +12 59 17.2 20.7   608 – Haleakala-AMOS MPS 103828
2002 12 10.41777 04 51 13.29 +12 49 47.3 20.3   644 – Palomar Mountain/NEAT MPS 106178
2002 12 10.43891 04 51 12.12 +12 49 44.5 19.8   644 – Palomar Mountain/NEAT MPS 106178
2002 12 10.46028 04 51 10.95 +12 49 42.5 20.1   644 – Palomar Mountain/NEAT MPS 106178
2004 02 19.38229 11 36 33.73 -00 46 00.8 19.4   704 – Lincoln Laboratory ETS, New Mexico MPS 100261
2004 02 19.39428 11 36 33.29 -00 45 57.2 19.4   704 – Lincoln Laboratory ETS, New Mexico MPS 100261
2004 02 19.40695 11 36 32.81 -00 45 52.6 19.0   704 – Lincoln Laboratory ETS, New Mexico MPS 100261
2004 02 19.41888 11 36 32.41 -00 45 47.7 19.2   704 – Lincoln Laboratory ETS, New Mexico MPS 100261
2004 02 20.54282 11 35 55.87 -00 39 13.4 20.0   608 – Haleakala-AMOS MPS 100261
2004 02 20.55455 11 35 55.46 -00 39 09.1 20.1   608 – Haleakala-AMOS MPS 100261
2004 02 20.56521 11 35 55.12 -00 39 05.6 20.7   608 – Haleakala-AMOS MPS 100261
2004 02 25.30232 11 33 05.86 -00 09 05.4 18.6   704 – Lincoln Laboratory ETS, New Mexico MPS 100261
2004 02 25.31451 11 33 05.42 -00 09 00.2 19.1   704 – Lincoln Laboratory ETS, New Mexico MPS 100261
2004 02 25.32664 11 33 04.87 -00 08 55.6 19.1   704 – Lincoln Laboratory ETS, New Mexico MPS 100261
2004 02 25.33875 11 33 04.42 -00 08 50.3 19.2   704 – Lincoln Laboratory ETS, New Mexico MPS 100261
2004 02 25.35084 11 33 04.02 -00 08 45.3 19.5   704 – Lincoln Laboratory ETS, New Mexico MPS 100261
2004 03 10.45134 11 23 01.04 +01 37 25.6 21.1   608 – Haleakala-AMOS MPS 100894
2004 03 10.46234 11 23 00.45 +01 37 32.3 20.3   608 – Haleakala-AMOS MPS 100894
2004 03 10.47350 11 22 59.94 +01 37 38.5 20.5   608 – Haleakala-AMOS MPS 100894
2004 03 12.25275 11 21 39.15 +01 52 02.6 18.7   644 – Palomar Mountain/NEAT MPS 101259
2004 03 12.27801 11 21 37.96 +01 52 14.9 17.9   644 – Palomar Mountain/NEAT MPS 101259
2004 03 12.31494 11 21 36.21 +01 52 33.0 17.6   644 – Palomar Mountain/NEAT MPS 101259
2004 03 13.32420 11 20 50.26 +02 00 47.4 17.8   644 – Palomar Mountain/NEAT MPS 101259
2004 03 13.34588 11 20 49.23 +02 00 58.0 18.1   644 – Palomar Mountain/NEAT MPS 101259
2004 03 13.37713 11 20 47.75 +02 01 13.4 18.2   644 – Palomar Mountain/NEAT MPS 101259
2004 03 14.31893 11 20 05.04 +02 08 55.7 19.1 V 691 – Steward Observatory, Kitt Peak-Spacewatch MPS 101259
2004 03 14.40354 11 20 01.04 +02 09 37.3 18.5 V 691 – Steward Observatory, Kitt Peak-Spacewatch MPS 101259
2004 03 14.43330 11 19 59.64 +02 09 52.0 18.6 V 691 – Steward Observatory, Kitt Peak-Spacewatch MPS 101259
2004 03 15.25375 11 19 22.87 +02 16 34.8 19.2 R 333 – Desert Eagle Observatory MPS 101259
2004 03 15.25605 11 19 22.77 +02 16 35.5 19.0 R 683 – Goodricke-Pigott Observatory, Tucson MPS 101259
2004 03 15.26767 11 19 22.20 +02 16 41.8 19.2 R 333 – Desert Eagle Observatory MPS 101259
2004 03 15.26945 11 19 22.13 +02 16 42.8 19.1 R 683 – Goodricke-Pigott Observatory, Tucson MPS 101259
2004 03 15.28283 11 19 21.46 +02 16 49.4 19.4 R 683 – Goodricke-Pigott Observatory, Tucson MPS 101259
2004 03 16.24080 11 18 38.37 +02 24 40.2 19.2 R 333 – Desert Eagle Observatory MPS 101259
2004 03 16.25280 11 18 37.82 +02 24 45.1 19.2 R 683 – Goodricke-Pigott Observatory, Tucson MPS 101259
2004 03 16.25472 11 18 37.71 +02 24 47.0 19.4 R 333 – Desert Eagle Observatory MPS 101259
2004 03 16.26621 11 18 37.18 +02 24 51.1 19.4 R 683 – Goodricke-Pigott Observatory, Tucson MPS 101259
2004 03 16.27959 11 18 36.56 +02 24 58.3 20.0 R 683 – Goodricke-Pigott Observatory, Tucson MPS 101259
2004 03 16.28195 11 18 36.41 +02 25 00.3 18.8   704 – Lincoln Laboratory ETS, New Mexico MPS 101259
2004 03 16.29347 11 18 35.83 +02 25 05.3 18.8   704 – Lincoln Laboratory ETS, New Mexico MPS 101259
2004 03 16.30548 11 18 35.26 +02 25 10.8 19.0   704 – Lincoln Laboratory ETS, New Mexico MPS 101259
2004 03 16.31683 11 18 34.78 +02 25 17.5 18.5   704 – Lincoln Laboratory ETS, New Mexico MPS 101259
2004 03 16.32811 11 18 34.22 +02 25 22.4 18.4   704 – Lincoln Laboratory ETS, New Mexico MPS 101259
2004 03 18.33749 11 17 04.64 +02 41 47.5 18.0   704 – Lincoln Laboratory ETS, New Mexico MPS 102260
2004 03 18.34902 11 17 04.11 +02 41 53.3 18.4   704 – Lincoln Laboratory ETS, New Mexico MPS 102260
2004 03 18.36013 11 17 03.60 +02 41 58.5 18.5   704 – Lincoln Laboratory ETS, New Mexico MPS 102260
2004 03 18.37123 11 17 03.16 +02 42 03.7 19.1   704 – Lincoln Laboratory ETS, New Mexico MPS 102260
2004 03 18.38858 11 17 02.25 +02 42 12.8 19.2   704 – Lincoln Laboratory ETS, New Mexico MPS 102260
2004 03 20.25236 11 15 40.93 +02 57 18.8 18.6 R 699 – Lowell Observatory-LONEOS MPS 103876
2004 03 20.27591 11 15 39.93 +02 57 30.6 18.1   704 – Lincoln Laboratory ETS, New Mexico MPS 102260
2004 03 20.27766 11 15 39.82 +02 57 31.5   699 – Lowell Observatory-LONEOS MPS 103876
2004 03 20.28671 11 15 39.43 +02 57 35.5 18.6   704 – Lincoln Laboratory ETS, New Mexico MPS 102260
2004 03 20.29762 11 15 38.90 +02 57 41.0 18.5   704 – Lincoln Laboratory ETS, New Mexico MPS 102260
2004 03 20.30293 11 15 38.67 +02 57 43.6   699 – Lowell Observatory-LONEOS MPS 103876
2004 03 20.30851 11 15 38.43 +02 57 46.2 19.0   704 – Lincoln Laboratory ETS, New Mexico MPS 102260
2004 03 20.31985 11 15 37.91 +02 57 51.5 19.1   704 – Lincoln Laboratory ETS, New Mexico MPS 102260
2004 03 20.32830 11 15 37.54 +02 57 56.2   699 – Lowell Observatory-LONEOS MPS 103876
